[[{"header":{"parameterUnit":"m.s-1","parameterCategory":1,"la1":30.2991,"la2":30.254,"lo1":-89.0895,"lo2":-89.0444,"dy":0.0017,"dx":0.0017,"nx":28,"ny":28,"refTime":"2024-05-04T03:00:00:Z","depth":0,"parameterNumber":2,"parameterNumberName":"U-component_of_WINDS"},"data":[0,0,0,0,0,0,0,0,0,0,0,0,0,0,0,0,0,0,0,0,0,0,0,0,0,0,0,0,0,0,0,0,0,0,0,0,0,0,0,0,0,0,0,0,0,0,0,0,0,0,0,0,0,0,0,0,0,0,-0.5265,-0.5264,0,-0.5202,-0.5201,-0.52,-0.5152,-0.5152,-0.5151,-0.5151,-0.5087,-0.5086,-0.5085,0,0,0,0,0,0,0,0,0,0,0,0,0,-0.5344,-0.5342,-0.5265,-0.5264,-0.5263,-0.5202,-0.5201,-0.52,-0.5152,-0.5152,-0.5151,-0.5151,-0.5088,-0.5086,-0.5085,0,0,0,0,0,0,0,0,0,0,0,0,0,-0.5298,-0.5342,-0.5265,-0.5232,-0.5228,-0.5202,-0.5201,-0.52,-0.5153,-0.5152,-0.5151,-0.5151,-0.5088,-0.5086,-0.5085,-0.5086,0,0,-0.5079,-0.5078,0,0,0,0,0,0,0,0,-0.5301,-0.5295,-0.5237,-0.5234,-0.523,-0.5184,-0.5205,-0.5162,-0.5153,-0.5181,-0.5151,-0.515,-0.512,-0.5116,-0.5105,-0.5083,-0.508,-0.5078,-0.5077,-0.5076,-0.5076,0,0,0,0,0,0,0,-0.5304,-0.5298,-0.524,-0.5237,-0.5232,-0.522,-0.5213,-0.5197,-0.5155,-0.5179,-0.5175,-0.5168,-0.5118,-0.5107,-0.5103,-0.5079,-0.5079,-0.5077,-0.5076,-0.5075,-0.5055,-0.5056,0,0,0,0,0,0,-0.5312,-0.5301,-0.5242,-0.5238,-0.5264,-0.5219,-0.5211,-0.52,-0.5155,-0.5148,-0.5169,-0.5166,-0.5111,-0.5106,-0.5101,-0.51,-0.5077,-0.5075,-0.5074,-0.5054,-0.5055,-0.5056,0,0,0,0,0,0,-0.5314,-0.5307,-0.5244,-0.5268,-0.5259,-0.5219,-0.5206,-0.5199,-0.5188,-0.5148,-0.514,-0.5166,-0.511,-0.5104,-0.509,-0.5097,-0.5074,-0.5072,-0.5054,-0.5055,-0.5056,-0.5097,0,0,0,0,0,0,-0.5316,-0.5308,-0.5308,-0.5268,-0.5258,-0.5234,-0.5206,-0.5198,-0.5185,-0.5181,-0.5143,-0.5136,-0.5109,-0.5093,-0.5088,-0.5094,-0.5071,-0.5053,-0.5054,-0.5055,-0.5095,-0.51,-0.5103,0,0,0,0,0,-0.5319,-0.5323,-0.5309,-0.5302,-0.5257,-0.5235,-0.5229,-0.5198,-0.5185,-0.5185,-0.5159,-0.5137,-0.5097,-0.5092,-0.5086,-0.5091,-0.5052,-0.5054,-0.5055,-0.5093,-0.5099,-0.5103,0,0,0,0,0,0,-0.5365,-0.5317,-0.5301,-0.5291,-0.5268,-0.5227,-0.5226,-0.5205,-0.5184,-0.5181,-0.5144,-0.5136,-0.5126,-0.5107,-0.5103,-0.509,-0.5072,-0.5072,-0.5103,-0.5108,-0.5112,-0.5116,-0.5069,0,0,0,0,0,-0.5374,-0.5359,-0.5318,-0.5314,-0.5303,-0.5267,-0.5256,-0.5234,-0.5207,-0.5197,-0.517,-0.5146,-0.5128,-0.5117,-0.5098,-0.5092,-0.5083,-0.5093,-0.5097,-0.51,-0.5101,-0.5096,-0.51,-0.506,-0.506,-0.506,0,0,-0.5392,-0.5364,-0.5358,-0.5323,-0.5301,-0.5287,-0.5258,-0.5245,-0.5234,-0.5195,-0.518,-0.516,-0.513,-0.5121,-0.5115,-0.5105,-0.511,-0.5102,-0.5105,-0.5104,-0.5098,-0.5102,-0.5105,-0.5061,-0.5061,-0.5061,0,0,-0.5418,-0.5396,-0.539,-0.5369,-0.5337,-0.5313,-0.5312,-0.5274,-0.5259,-0.5243,-0.5214,-0.5201,-0.517,-0.515,-0.5136,-0.5154,-0.5133,-0.5149,-0.5171,-0.5166,-0.517,-0.5172,-0.5178,-0.5181,-0.515,-0.515,-0.515,0,-0.5445,-0.5423,-0.5389,-0.5377,-0.5363,-0.5327,-0.532,-0.5302,-0.5266,-0.5257,-0.5245,-0.5206,-0.5184,-0.5169,-0.5173,-0.5163,-0.516,-0.5153,-0.5172,-0.5174,-0.5176,-0.5181,-0.5184,-0.5152,-0.5152,-0.5152,-0.5152,0,-0.5457,-0.5442,-0.5441,-0.5406,-0.5392,-0.5383,-0.5348,-0.5337,-0.5316,-0.5293,-0.5278,-0.525,-0.5224,-0.5219,-0.5199,-0.5201,-0.5196,-0.5179,-0.5159,-0.5182,-0.5187,-0.5189,-0.5155,-0.5155,-0.5154,-0.5153,0,0,-0.5511,-0.5458,-0.5458,-0.5442,-0.5404,-0.5391,-0.5381,-0.5355,-0.5347,-0.5323,-0.5313,-0.5288,-0.5272,-0.5256,-0.5233,-0.5229,-0.5245,-0.5213,-0.5211,-0.522,-0.5246,-0.5259,-0.5262,-0.5231,-0.5231,-0.5231,-0.5248,0,-0.5531,-0.5509,-0.5478,-0.5467,-0.5452,-0.5418,-0.5408,-0.5384,-0.5362,-0.5347,-0.5322,-0.5305,-0.5285,-0.5275,-0.527,-0.5245,-0.525,-0.5243,-0.5221,-0.5221,-0.523,-0.5264,-0.5278,-0.5295,-0.525,-0.525,-0.525,0,-0.5552,-0.5529,-0.5516,-0.5479,-0.5472,-0.5464,-0.5438,-0.5424,-0.5396,-0.538,-0.5362,-0.5337,-0.5324,-0.5307,-0.5288,-0.5284,-0.5273,-0.5259,-0.5259,-0.5255,-0.5237,-0.5262,-0.53,-0.5302,-0.5253,-0.5253,-0.5252,0,-0.5592,-0.5559,-0.5546,-0.5533,-0.549,-0.5485,-0.5467,-0.5438,-0.5425,-0.5402,-0.5393,-0.537,-0.5357,-0.5339,-0.5309,-0.5299,-0.5293,-0.5274,-0.528,-0.5281,-0.528,-0.5281,-0.5317,-0.5274,-0.5274,-0.5274,-0.5274,0,-0.5617,-0.5611,-0.5564,-0.5556,-0.5548,-0.5512,-0.5505,-0.5484,-0.5458,-0.5446,-0.5415,-0.5404,-0.5364,-0.5349,-0.5325,-0.5313,-0.5307,-0.5294,-0.5288,-0.5297,-0.5299,-0.5289,-0.5287,-0.5274,-0.5274,-0.5274,-0.5274,0,-0.5661,-0.5629,-0.5613,-0.5573,-0.5563,-0.5558,-0.5524,-0.5516,-0.5492,-0.5477,-0.5471,-0.5434,-0.5414,-0.5382,-0.5353,-0.5337,-0.5329,-0.5318,-0.5338,-0.5334,-0.5342,-0.5342,-0.5374,-0.5376,-0.5332,-0.5333,-0.5333,0,-0.5679,-0.5673,-0.5632,-0.5622,-0.5605,-0.5588,-0.5574,-0.5539,-0.5526,-0.5493,-0.5489,-0.5466,-0.5447,-0.5417,-0.5387,-0.5364,-0.5353,-0.5366,-0.5349,-0.5359,-0.5353,-0.5354,-0.5353,-0.537,-0.537,-0.5371,-0.5371,0,-0.5716,-0.57,-0.5681,-0.5656,-0.5641,-0.562,-0.5597,-0.559,-0.555,-0.5537,-0.5516,-0.5501,-0.5471,-0.5449,-0.5423,-0.5404,-0.5381,-0.5376,-0.5377,-0.5386,-0.5398,-0.5391,-0.5348,-0.5376,-0.5375,-0.5375,-0.5375,-0.5375,-0.5747,-0.574,-0.571,-0.569,-0.5669,-0.5648,-0.5638,-0.5613,-0.5595,-0.5567,-0.5548,-0.5528,-0.55,-0.5462,-0.5444,-0.5428,-0.5418,-0.5419,-0.5419,-0.5419,-0.5423,-0.54,-0.5423,-0.5423,-0.5423,-0.5423,-0.5423,0,-0.5781,-0.576,-0.5742,-0.5711,-0.5695,-0.5675,-0.5649,-0.5637,-0.562,-0.5595,-0.5576,-0.5552,-0.5531,-0.5499,-0.5475,-0.5469,-0.5458,-0.5464,-0.5464,-0.546,-0.5433,-0.5435,-0.5473,-0.5473,-0.5473,-0.5473,-0.5473,-0.5473,-0.5798,-0.5784,-0.5765,-0.5741,-0.572,-0.57,-0.5687,-0.5668,-0.5648,-0.5622,-0.5604,-0.5584,-0.5556,-0.553,-0.5509,-0.5501,-0.5493,-0.5503,-0.5491,-0.5466,-0.5462,-0.5457,-0.5459,-0.5501,-0.5501,-0.5519,-0.5519,-0.5519]},{"header":{"parameterUnit":"m.s-1","parameterCategory":1,"la1":30.2991,"la2":30.254,"lo1":-89.0895,"lo2":-89.0444,"dy":0.0017,"dx":0.0017,"nx":28,"ny":28,"refTime":"2024-05-04T03:00:00:Z","depth":0,"parameterNumber":3,"parameterNumberName":"V-component_of_WINDS"},"data":[0,0,0,0,0,0,0,0,0,0,0,0,0,0,0,0,0,0,0,0,0,0,0,0,0,0,0,0,0,0,0,0,0,0,0,0,0,0,0,0,0,0,0,0,0,0,0,0,0,0,0,0,0,0,0,0,0,0,1.8395,1.8395,0,1.8397,1.8397,1.8397,1.836,1.8359,1.8358,1.8358,1.836,1.8361,1.8362,0,0,0,0,0,0,0,0,0,0,0,0,0,1.8356,1.8357,1.8395,1.8395,1.8395,1.8397,1.8397,1.8397,1.8361,1.8359,1.8358,1.8357,1.836,1.8361,1.8362,0,0,0,0,0,0,0,0,0,0,0,0,0,1.8367,1.8358,1.8395,1.8377,1.8375,1.8397,1.8397,1.8397,1.8361,1.8359,1.8358,1.8356,1.8359,1.8361,1.8362,1.8402,0,0,1.8367,1.8367,0,0,0,0,0,0,0,0,1.8367,1.8369,1.8379,1.8378,1.8376,1.8377,1.8385,1.8399,1.8361,1.8366,1.8357,1.8356,1.8367,1.8368,1.8371,1.8402,1.8402,1.8367,1.8368,1.8368,1.8369,0,0,0,0,0,0,0,1.8366,1.8369,1.8396,1.8379,1.8378,1.8368,1.8368,1.8387,1.8375,1.8366,1.8363,1.8364,1.8366,1.837,1.8371,1.8402,1.8367,1.8368,1.8369,1.837,1.8465,1.8466,0,0,0,0,0,0,1.8368,1.8368,1.8396,1.8396,1.8368,1.837,1.837,1.8378,1.8375,1.8373,1.8365,1.8362,1.8368,1.8369,1.8371,1.8417,1.8368,1.837,1.8371,1.8463,1.8465,1.8467,0,0,0,0,0,0,1.8367,1.8371,1.8395,1.8381,1.8384,1.8372,1.8382,1.8379,1.8383,1.8374,1.8372,1.8372,1.8367,1.8369,1.8394,1.8417,1.837,1.8372,1.8461,1.8464,1.8466,1.851,0,0,0,0,0,0,1.8366,1.8371,1.8386,1.8382,1.8385,1.8419,1.8383,1.838,1.8386,1.8382,1.838,1.8378,1.8366,1.8392,1.8396,1.8418,1.8373,1.8459,1.8462,1.8465,1.8507,1.8514,1.852,0,0,0,0,0,1.8365,1.8398,1.8387,1.839,1.8403,1.842,1.8422,1.8407,1.8388,1.8403,1.8397,1.8378,1.8414,1.8395,1.8399,1.8422,1.8458,1.8461,1.8465,1.8504,1.8512,1.852,0,0,0,0,0,0,1.8405,1.8397,1.8385,1.8417,1.842,1.8414,1.8433,1.8417,1.8425,1.8421,1.8402,1.8402,1.8431,1.8429,1.8408,1.846,1.8432,1.8437,1.846,1.8469,1.8475,1.8475,1.8374,0,0,0,0,0,1.8417,1.8432,1.8424,1.8454,1.8456,1.8444,1.8451,1.844,1.8441,1.8442,1.8438,1.844,1.8452,1.846,1.847,1.8506,1.8505,1.8524,1.853,1.8536,1.854,1.8559,1.8567,1.8479,1.8479,1.8479,0,0,1.8443,1.8441,1.8451,1.8462,1.8462,1.8478,1.8445,1.8463,1.8474,1.8445,1.8469,1.8466,1.8467,1.8498,1.8511,1.8497,1.8564,1.854,1.8545,1.8546,1.8564,1.8572,1.8579,1.8481,1.8481,1.8481,0,0,1.8499,1.8498,1.8523,1.8524,1.8526,1.8518,1.8524,1.8521,1.8518,1.8541,1.8519,1.8532,1.8553,1.8555,1.8558,1.8615,1.8597,1.8618,1.8653,1.8672,1.8679,1.8685,1.8705,1.8713,1.8623,1.8623,1.8623,0,1.8531,1.8554,1.8538,1.8557,1.8562,1.8536,1.8561,1.8563,1.8568,1.8572,1.8556,1.8581,1.858,1.8611,1.8625,1.8629,1.8635,1.8619,1.8679,1.8685,1.8691,1.871,1.8718,1.8625,1.8625,1.8625,1.8624,0,1.8593,1.861,1.8629,1.8635,1.8642,1.8664,1.8651,1.8661,1.8649,1.8642,1.8667,1.8664,1.8674,1.868,1.8668,1.871,1.8701,1.8682,1.8654,1.8702,1.872,1.8727,1.8629,1.8628,1.8627,1.8627,0,0,1.8675,1.8671,1.8678,1.8681,1.868,1.8692,1.8713,1.8722,1.8731,1.8735,1.8752,1.877,1.8753,1.8757,1.8745,1.8761,1.8806,1.8741,1.874,1.8753,1.8852,1.8866,1.8875,1.8795,1.8796,1.8797,1.8852,0,1.8729,1.8765,1.8751,1.8787,1.8802,1.8777,1.8795,1.8797,1.8792,1.8803,1.8797,1.881,1.8786,1.8789,1.8804,1.8798,1.8826,1.8793,1.8811,1.8811,1.8812,1.8884,1.89,1.8951,1.8859,1.886,1.8861,0,1.8797,1.8804,1.8843,1.884,1.8846,1.8862,1.887,1.8881,1.8882,1.8877,1.8882,1.8866,1.8886,1.8858,1.8885,1.8863,1.8869,1.8868,1.8869,1.8871,1.8839,1.8888,1.8968,1.8976,1.8871,1.8871,1.887,0,1.8853,1.8872,1.8898,1.89,1.8897,1.891,1.8909,1.8909,1.8915,1.8922,1.8926,1.8934,1.8939,1.8946,1.8933,1.8914,1.8963,1.8933,1.8959,1.896,1.8971,1.8971,1.9053,1.8974,1.8974,1.8974,1.8974,0,1.8916,1.894,1.8923,1.8939,1.8965,1.8949,1.8975,1.8972,1.8972,1.8986,1.8965,1.8979,1.8961,1.8974,1.8964,1.8988,1.899,1.8987,1.8984,1.8989,1.8989,1.8993,1.8989,1.8976,1.8975,1.8975,1.8975,0,1.8983,1.8972,1.8998,1.8994,1.8993,1.9013,1.9008,1.9023,1.9016,1.9034,1.9038,1.9026,1.904,1.9028,1.904,1.9033,1.9066,1.9058,1.9066,1.9064,1.9091,1.9089,1.9179,1.919,1.9103,1.9104,1.9105,0,1.9024,1.9042,1.904,1.9048,1.9049,1.9062,1.9069,1.9053,1.9061,1.9064,1.9078,1.9089,1.9098,1.912,1.9113,1.9123,1.9115,1.9145,1.9116,1.9121,1.9116,1.9115,1.9117,1.9152,1.9153,1.9154,1.9154,0,1.9098,1.9092,1.9102,1.9111,1.912,1.9126,1.913,1.9138,1.9122,1.9132,1.9145,1.9152,1.9165,1.9177,1.9184,1.9183,1.9166,1.9164,1.917,1.9176,1.918,1.9179,1.9083,1.9162,1.9161,1.916,1.916,1.916,1.9154,1.9169,1.917,1.9182,1.9184,1.9188,1.9202,1.9196,1.9207,1.9217,1.9206,1.9223,1.9224,1.9232,1.9233,1.9245,1.9232,1.9242,1.9244,1.9247,1.9251,1.9178,1.9247,1.9246,1.9246,1.9246,1.9246,0,1.9227,1.9226,1.9238,1.9245,1.9255,1.9238,1.9242,1.9251,1.9266,1.9268,1.9277,1.9292,1.9304,1.9298,1.9307,1.9319,1.9311,1.9322,1.9321,1.9321,1.9262,1.9256,1.9328,1.9328,1.9328,1.9328,1.9328,1.9328,1.9267,1.9292,1.9286,1.9311,1.931,1.9326,1.933,1.9334,1.9335,1.9354,1.9363,1.9359,1.9358,1.9367,1.9377,1.9375,1.938,1.9393,1.9388,1.9333,1.9325,1.9318,1.9312,1.9394,1.9394,1.9447,1.9447,1.9447]}]]